Tracking 19638 objects as of 21-Apr-2019
HD Live streaming from Space Station
objects crossing your sky now

APRIZESAT 5

Track APRIZESAT 5 now!
10-day predictions
APRIZESAT 5 is classified as:


NORAD ID: 37792
Int'l Code: 2011-044E
Perigee: 609.5 km
Apogee: 693.1 km
Inclination: 98.4 °
Period: 97.6 minutes
Semi major axis: 7022 km
RCS: 0.107 m2 (medium)
Launch date: August 17, 2011
Source: United States (US)
Launch site: Orenburg, Russia (OREN)
aabbcc
Your satellite tracking list
Your tracking list is empty




NASA's NSSDC Master Catalog

Two Line Element Set (TLE):
1 37792U 11044E   19111.08213591  .00000032  00000-0  12953-4 0  9999
2 37792  98.4135 287.9503 0059479  72.1565 288.6119 14.75309478413072
Source of the keplerian elements: AFSPC